Temperature
16 16 16 16 16 16 16 16 16 15 15 15 15 15 15 15 15 15 15 15 15 15 15 15 14 14 14 14 14 14 14 13 13 13 13 13 13 13
16 16 16 16 16 16 16 16 16 15 15 15 15 15 15 15 15 15 14 14 14 14 14 14 14 14 14 14 14 14 13 13 13 13 13 13 13 13
16 16 16 16 16 16 16 15 15 15 15 15 15 14 14 14 14 14 14 14 14 14 14 14 14 14 14 13 13 13 13 13 13 13 13 12 12 12
16 16 16 16 16 15 15 15 15 15 15 15 14 14 14 14 14 14 14 14 14 14 13 13 13 13 13 13 13 13 13 13 12 12 12 12 12 12
15 15 15 15 15 15 15 15 15 15 15 14 14 14 14 14 13 13 13 13 13 13 13 13 13 13 13 13 13 12 12 12 12 12 12 12 11 11
15 15 15 15 15 15 15 14 14 14 14 14 14 14 13 13 13 13 13 13 13 13 13 12 12 12 12 12 12 12 12 12 12 11 11 11 11 11
15 15 15 15 15 14 14 14 14 14 14 14 13 13 13 13 13 13 13 13 12 12 12 12 12 12 12 12 12 11 11 11 11 11 11 11 11 11
15 15 14 14 14 14 14 14 14 14 13 13 13 13 13 13 13 13 13 12 12 12 12 12 12 12 11 11 11 11 11 11 11 11 11 11 10 10
14 14 14 14 14 14 14 14 13 13 13 13 13 13 13 13 13 12 12 12 12 12 12 11 11 11 11 11 11 11 11 11 10 10 10 10 10 10
14 14 14 14 14 14 13 13 13 13 13 13 12 13 12 12 12 12 12 12 12 11 11 11 11 11 11 11 11 11 11 10 10 10 10 10 10 10
14 14 14 14 14 13 13 13 13 13 13 12 12 12 12 12 12 12 12 12 11 11 11 11 11 11 11 11 11 10 10 10 10 10 10 10 10 9
14 14 14 13 13 13 13 13 13 13 12 12 12 12 12 12 12 12 12 11 11 11 11 11 11 11 10 11 11 10 10 10 10 10 9 9 9 9
14 14 13 13 13 13 13 13 12 12 12 12 12 12 12 12 11 11 11 11 11 11 11 11 11 11 10 10 10 10 10 10 10 10 9 9 9 9
13 13 13 13 13 13 13 12 12 12 12 12 12 12 12 12 11 11 11 11 11 11 11 11 11 11 11 10 10 10 10 10 10 9 9 9 9 9
13 13 13 12 12 12 12 12 12 12 12 11 11 12 11 11 11 11 11 11 11 11 11 11 11 11 11 10 10 10 10 10 10 9 9 9 9 9
13 13 12 12 12 12 12 12 12 11 11 11 11 11 11 11 11 11 11 11 11 11 11 11 10 10 10 10 10 10 10 10 10 9 9 9 9 8
13 12 12 12 12 12 12 12 11 11 11 11 11 11 11 11 11 11 11 11 10 10 10 10 10 10 10 10 10 10 10 10 9 9 9 9 9 9
12 12 12 12 12 11 11 11 11 11 11 11 11 10 10 10 10 10 10 10 10 10 10 10 10 10 10 9 10 9 9 9 9 9 9 9 9 8
12 12 12 11 11 11 11 11 11 11 11 10 10 10 10 10 10 10 10 10 10 10 10 10 10 9 9 9 9 9 9 9 9 9 9 8 8 8
12 11 11 11 11 11 11 10 10 10 10 10 10 10 10 10 10 10 10 10 10 10 10 10 10 9 9 9 9 9 9 9 9 9 8 8 8 8
11 11 11 11 11 11 11 10 10 10 10 10 10 10 10 9 9 10 10 10 9 9 9 10 10 9 9 9 9 9 9 9 9 8 8 8 8 8
11 11 11 10 10 10 10 10 10 10 9 9 10 10 10 9 9 9 9 9 9 9 9 9 9 9 9 9 9 9 9 9 8 8 8 8 8 8
11 10 10 10 10 10 10 10 10 9 9 9 9 9 9 9 9 9 9 9 9 9 9 9 9 8 8 8 8 8 8 8 8 8 8 8 8 8
Wind_Speed
1 2 2 2 2 3 3 3 3 2 2 2 1 1 0 1 0 1 1 1 1 1 1 1 1 2 2 2 3 3 3 4 4 4 4 4 5 4
1 1 1 1 1 1 2 2 3 3 3 1 2 1 0 1 2 1 1 2 2 2 2 2 2 2 3 3 4 4 4 5 5 5 5 5 5 5
1 1 1 1 1 1 1 2 2 3 3 1 1 0 0 1 1 2 2 2 2 2 2 2 2 2 3 3 4 4 5 6 6 6 6 6 6 6
1 1 2 1 1 1 1 2 2 3 3 2 1 0 0 0 1 1 2 2 2 2 2 2 3 3 3 4 5 5 6 6 6 6 5 5 6 6
1 2 2 1 1 1 1 2 2 2 2 2 1 0 1 1 2 2 2 2 2 2 2 2 3 3 3 5 6 6 6 6 5 5 5 6 6 7
2 2 2 2 3 3 2 2 2 2 2 2 1 1 1 1 1 1 1 1 1 2 2 2 3 3 4 5 5 6 6 5 5 5 5 5 6 7
2 2 2 2 3 3 3 3 3 3 2 2 2 1 1 1 1 1 1 1 0 0 1 1 2 2 2 3 4 5 5 5 5 5 6 6 6 6
3 3 2 2 2 2 3 4 5 4 4 3 2 3 3 3 2 3 2 2 1 1 1 0 1 1 1 2 4 5 6 6 6 6 6 6 6 6
3 3 2 2 2 1 1 1 2 3 5 4 4 4 4 5 4 4 3 3 2 2 2 1 1 1 1 2 4 5 6 6 6 6 6 6 6 6
4 4 3 3 3 2 1 1 1 2 3 3 4 5 5 5 5 5 4 3 1 1 2 2 1 2 1 1 3 6 6 7 7 7 7 6 6 6
4 4 4 4 4 4 3 2 2 2 2 3 4 4 5 5 6 4 4 3 2 2 2 2 2 1 1 1 2 4 6 7 7 7 7 7 7 6
3 4 5 5 5 5 4 4 4 4 2 1 1 2 2 4 7 6 6 5 3 3 4 4 2 2 1 1 1 2 4 5 7 7 7 7 7 5
4 4 4 6 6 7 6 5 6 4 3 3 2 2 2 3 4 5 6 6 5 4 4 5 3 3 2 1 1 2 3 3 4 5 6 7 8 7
5 4 4 6 6 6 6 6 6 4 3 3 3 3 4 4 4 5 6 7 6 5 6 7 4 4 3 2 2 2 2 3 4 4 4 5 6 7
4 5 5 6 5 4 6 6 5 4 4 4 5 6 5 4 4 3 4 4 4 4 6 7 5 5 4 4 3 2 2 2 3 4 4 4 4 4
4 4 4 4 3 3 3 3 3 4 5 5 5 5 3 3 4 3 4 4 3 3 3 6 6 6 4 4 4 4 4 3 3 4 4 3 4 5
3 2 1 1 2 2 3 3 3 3 4 4 4 4 4 4 4 4 4 4 4 5 4 2 3 4 4 4 4 5 5 4 4 4 4 4 4 6
3 2 3 3 4 4 4 4 4 4 5 5 5 5 5 5 5 4 4 5 6 6 5 4 3 2 2 3 6 6 5 5 4 5 5 5 5 5
3 3 4 4 4 4 4 4 5 5 4 4 5 5 5 5 5 5 6 6 6 6 6 5 5 5 5 6 4 7 6 5 4 4 5 5 6 6
4 4 5 5 5 5 5 5 5 4 4 4 4 5 5 5 5 6 6 6 6 6 6 5 6 7 8 7 4 4 8 7 6 6 5 4 4 3
5 5 5 5 5 5 5 5 4 4 4 4 4 4 4 5 5 5 5 6 6 6 7 7 7 7 5 3 3 4 4 8 8 6 5 4 3 3
5 5 5 5 5 5 4 4 4 4 4 4 5 5 5 5 6 6 6 6 6 6 7 5 3 4 4 5 6 6 4 3 5 7 7 7 4 5
5 5 5 5 5 4 4 5 6 5 5 5 5 5 5 5 5 5 6 6 6 6 5 4 3 4 5 6 6 5 6 5 3 3 4 7 10 9
Wind_Direction
210 205 216 232 214 211 203 191 189 224 251 240 244 283 259 143 167 137 138 78 101 99 82 124 143 152 156 168 164 155 144 138 135 138 147 138 139 149
218 196 229 247 227 204 199 203 202 203 224 228 231 270 292 87 97 111 99 79 78 87 101 102 116 129 130 133 136 137 133 128 131 131 127 126 132 131
265 205 246 245 232 227 204 199 201 193 213 238 225 274 201 106 79 80 77 78 60 85 107 112 116 127 134 134 132 130 127 127 128 127 126 128 131 130
258 252 273 266 245 224 199 193 195 193 190 204 212 199 220 138 88 69 55 71 63 77 104 122 127 130 135 135 131 126 125 128 129 126 129 133 135 135
233 237 258 238 237 220 201 200 193 174 172 172 184 148 69 74 74 65 58 47 54 58 89 109 115 125 139 137 130 127 126 124 122 121 126 131 136 135
241 241 243 230 224 213 205 202 177 159 151 152 149 127 107 79 105 106 67 44 36 46 67 86 93 96 111 124 131 130 129 126 123 123 127 131 133 134
258 260 257 246 230 213 204 193 176 169 163 164 163 161 172 160 187 189 181 144 60 32 77 60 88 91 103 133 143 143 142 139 136 135 133 132 133 136
246 262 272 268 263 231 203 191 183 182 184 182 192 203 211 209 197 187 177 176 211 222 170 44 137 159 179 178 172 166 163 159 154 150 146 144 143 143
234 243 258 264 252 251 244 192 198 199 192 189 195 213 212 205 195 196 199 200 210 183 171 198 182 222 236 201 188 184 182 178 171 164 160 162 163 162
237 231 233 246 239 215 197 186 216 232 222 210 213 221 223 210 199 200 195 184 151 165 182 198 207 219 241 244 213 199 196 189 183 180 178 176 174 172
248 240 234 239 236 196 183 201 230 259 253 223 225 225 221 209 189 168 167 171 209 217 195 193 193 197 223 246 231 202 196 193 188 186 187 186 184 178
260 256 242 235 224 199 199 205 226 246 250 266 269 242 217 202 193 197 193 193 203 218 196 187 184 177 209 227 221 200 195 198 194 193 194 194 189 180
246 254 252 237 225 215 210 219 228 225 228 232 245 253 238 221 217 214 209 203 205 220 193 180 183 184 192 207 226 216 203 197 194 202 202 201 198 189
241 246 249 241 234 228 223 229 226 218 217 222 234 244 242 238 234 224 218 218 223 226 198 184 188 187 186 204 224 217 216 209 196 195 200 201 204 204
249 248 244 243 242 238 235 226 218 215 214 224 234 239 238 235 234 231 224 221 228 231 204 200 197 192 198 213 211 204 216 226 205 196 193 196 200 197
251 252 233 226 232 241 242 233 226 221 221 230 238 243 239 230 228 224 224 218 224 236 215 205 201 193 204 214 211 217 209 203 201 202 199 205 209 207
221 231 224 234 241 252 255 249 236 225 229 236 235 235 235 237 238 225 216 211 220 229 228 209 203 205 213 205 214 224 219 218 211 195 194 210 221 217
184 223 235 237 239 243 248 256 249 240 237 235 233 231 231 231 233 226 218 215 222 228 227 216 195 195 223 244 222 224 224 225 221 204 201 212 228 224
208 239 238 236 240 242 244 247 252 251 240 232 233 234 235 232 228 225 220 221 226 228 225 211 204 206 226 248 236 210 221 226 213 211 211 216 232 230
231 243 245 241 239 239 241 245 254 255 246 241 239 236 232 230 228 226 222 224 227 229 226 215 214 216 224 237 244 233 213 215 213 216 218 223 238 246
235 242 245 244 244 243 243 244 247 249 248 242 243 241 234 230 230 229 228 225 226 228 229 231 232 219 217 214 233 242 227 213 212 213 209 213 224 225
238 240 243 243 243 241 242 243 245 247 249 249 249 246 238 233 233 231 231 230 229 230 236 237 205 188 202 216 231 242 245 224 215 215 210 201 205 217
239 241 243 244 242 237 237 238 243 249 249 250 251 247 242 239 236 232 230 232 232 229 228 226 213 209 218 222 230 240 243 237 225 219 231 229 225 229
Height
1535 1535 1535 1535 1535 1535 1535 1535 1536 1534 1534 1534 1535 1534 1534 1534 1534 1533 1533 1533 1532 1532 1531 1531 1530 1530 1530 1531 1531 1531 1532 1532 1533 1534 1534 1535 1537 1538
1533 1533 1533 1532 1532 1532 1532 1532 1532 1532 1531 1531 1531 1532 1531 1531 1531 1531 1531 1530 1530 1529 1529 1528 1528 1528 1528 1528 1528 1529 1529 1530 1531 1531 1532 1533 1534 1535
1531 1531 1530 1530 1530 1530 1530 1530 1530 1529 1529 1528 1529 1529 1529 1529 1529 1529 1528 1528 1527 1527 1527 1527 1526 1526 1526 1526 1526 1527 1527 1528 1529 1529 1530 1531 1531 1533
1529 1529 1528 1528 1527 1527 1527 1527 1527 1526 1526 1526 1526 1527 1527 1527 1527 1526 1526 1526 1526 1525 1525 1525 1525 1524 1524 1524 1524 1525 1526 1526 1527 1527 1528 1529 1529 1530
1527 1527 1526 1526 1525 1525 1524 1524 1524 1524 1524 1524 1524 1524 1525 1525 1525 1525 1524 1524 1524 1524 1524 1523 1523 1523 1522 1522 1523 1523 1524 1525 1525 1526 1526 1527 1528 1528
1525 1525 1524 1523 1523 1522 1522 1522 1522 1522 1522 1522 1522 1522 1522 1523 1523 1523 1522 1522 1522 1522 1522 1522 1521 1521 1521 1521 1521 1522 1522 1523 1524 1524 1525 1525 1526 1526
1523 1522 1521 1521 1520 1519 1519 1519 1519 1519 1519 1519 1519 1520 1520 1520 1521 1521 1521 1521 1521 1521 1520 1520 1520 1520 1520 1520 1520 1521 1521 1522 1522 1522 1522 1523 1523 1524
1520 1519 1519 1518 1517 1517 1517 1517 1517 1517 1517 1517 1517 1517 1517 1518 1519 1519 1519 1519 1519 1520 1519 1519 1519 1519 1519 1519 1519 1520 1520 1520 1520 1520 1521 1521 1522 1522
1517 1517 1516 1516 1515 1515 1514 1514 1514 1514 1514 1515 1514 1515 1515 1516 1516 1516 1516 1516 1517 1517 1517 1517 1517 1517 1518 1518 1518 1518 1518 1518 1519 1519 1519 1519 1520 1520
1514 1513 1513 1513 1513 1512 1512 1511 1511 1511 1511 1512 1512 1512 1513 1514 1514 1515 1514 1515 1515 1515 1516 1515 1515 1516 1516 1516 1516 1517 1517 1517 1517 1517 1517 1517 1518 1518
1510 1510 1510 1510 1510 1510 1509 1509 1508 1508 1509 1509 1509 1510 1510 1511 1511 1512 1512 1512 1512 1513 1513 1513 1513 1513 1514 1514 1515 1515 1515 1515 1515 1515 1515 1515 1516 1516
1507 1507 1507 1507 1507 1507 1506 1506 1505 1506 1506 1506 1506 1507 1507 1508 1508 1509 1509 1509 1509 1510 1510 1511 1511 1511 1511 1512 1512 1512 1512 1512 1513 1513 1513 1513 1513 1514
1503 1503 1503 1504 1503 1503 1503 1503 1502 1503 1503 1503 1503 1503 1504 1504 1505 1505 1506 1506 1506 1507 1508 1508 1508 1508 1509 1509 1509 1509 1510 1510 1510 1510 1510 1510 1511 1511
1500 1499 1500 1500 1499 1499 1499 1499 1499 1499 1499 1499 1499 1499 1499 1500 1500 1501 1502 1503 1503 1504 1504 1505 1504 1505 1505 1505 1505 1506 1506 1507 1506 1507 1507 1508 1508 1508
1496 1496 1496 1495 1496 1495 1495 1495 1495 1494 1494 1494 1494 1495 1495 1496 1496 1497 1497 1498 1499 1500 1500 1501 1501 1501 1502 1502 1502 1502 1502 1503 1503 1503 1503 1504 1504 1505
1492 1492 1491 1491 1491 1491 1491 1490 1490 1490 1490 1490 1490 1491 1491 1491 1492 1492 1492 1493 1494 1495 1496 1496 1497 1498 1498 1498 1498 1498 1499 1499 1499 1500 1500 1500 1501 1501
1487 1487 1486 1486 1486 1486 1486 1485 1485 1485 1485 1485 1485 1485 1486 1486 1487 1487 1488 1489 1489 1490 1491 1492 1493 1493 1494 1494 1494 1494 1495 1495 1496 1496 1496 1496 1497 1497
1483 1482 1481 1481 1481 1481 1481 1481 1480 1480 1480 1480 1480 1480 1481 1481 1482 1482 1483 1483 1484 1485 1486 1487 1488 1489 1490 1489 1490 1490 1490 1491 1492 1492 1492 1492 1492 1493
1479 1478 1477 1477 1477 1477 1477 1476 1476 1476 1476 1475 1475 1475 1476 1476 1476 1476 1477 1478 1479 1480 1481 1482 1483 1484 1484 1484 1484 1486 1486 1486 1487 1487 1487 1488 1488 1489
1474 1474 1473 1473 1473 1473 1472 1472 1472 1471 1471 1470 1470 1470 1470 1470 1470 1470 1471 1472 1473 1474 1475 1476 1477 1477 1478 1479 1480 1480 1481 1481 1482 1482 1482 1483 1483 1484
1470 1469 1469 1469 1468 1468 1468 1467 1467 1467 1466 1465 1465 1465 1465 1465 1465 1465 1466 1466 1467 1468 1469 1470 1471 1472 1473 1474 1475 1474 1476 1477 1477 1477 1478 1479 1479 1479
1465 1465 1465 1465 1464 1464 1463 1463 1462 1462 1461 1461 1460 1460 1460 1460 1459 1460 1460 1461 1461 1462 1463 1464 1465 1466 1467 1468 1468 1469 1470 1471 1472 1473 1473 1474 1473 1473
1461 1460 1460 1460 1459 1459 1458 1458 1458 1457 1456 1456 1455 1455 1454 1454 1454 1454 1455 1455 1456 1456 1457 1458 1459 1461 1461 1462 1463 1464 1465 1466 1466 1467 1468 1468 1469 1470